owner,sensor,date,latitude,longitude,vertical_datum,mass_concentration_of_oxygen_in_sea_water,qcFlag 
DISL,ioos:station:DISL:BSCA:1,2017-05-01T00:00:00Z,30.3288,-87.8293,2.443,6.21,1111122 
DISL,ioos:station:DISL:BSCA:1,2017-05-01T00:30:00Z,30.3288,-87.8293,2.344,6.09,1111122 
DISL,ioos:station:DISL:BSCA:1,2017-05-01T01:00:00Z,30.3288,-87.8293,2.269,6.46,1111122 
DISL,ioos:station:DISL:BSCA:1,2017-05-01T01:30:00Z,30.3288,-87.8293,2.157,6.59,1111122 
DISL,ioos:station:DISL:BSCA:1,2017-05-01T02:00:00Z,30.3288,-87.8293,2.132,6.84,1111122 
DISL,ioos:station:DISL:BSCA:1,2017-05-01T02:30:00Z,30.3288,-87.8293,2.128,6.6,1111122 
DISL,ioos:station:DISL:BSCA:1,2017-05-01T03:00:00Z,30.3288,-87.8293,2.1,6.9,1111122 
DISL,ioos:station:DISL:BSCA:1,2017-05-01T03:30:00Z,30.3288,-87.8293,2.061,7.15,1111122 
DISL,ioos:station:DISL:BSCA:1,2017-05-01T04:00:00Z,30.3288,-87.8293,1.886,7.04,1111122 
DISL,ioos:station:DISL:BSCA:1,2017-05-01T04:30:00Z,30.3288,-87.8293,1.937,6.94,1111122 
DISL,ioos:station:DISL:BSCA:1,2017-05-01T05:00:00Z,30.3288,-87.8293,2.008,6.89,1111122 
DISL,ioos:station:DISL:BSCA:1,2017-05-01T05:30:00Z,30.3288,-87.8293,1.983,6.98,1111122 
DISL,ioos:station:DISL:BSCA:1,2017-05-01T06:00:00Z,30.3288,-87.8293,2.226,7.08,1111122 
DISL,ioos:station:DISL:BSCA:1,2017-05-01T06:30:00Z,30.3288,-87.8293,2.13,7.09,1111122 
DISL,ioos:station:DISL:BSCA:1,2017-05-01T07:00:00Z,30.3288,-87.8293,2.263,7.28,1111122 
DISL,ioos:station:DISL:BSCA:1,2017-05-01T07:30:00Z,30.3288,-87.8293,2.177,7.16,1111122 
DISL,ioos:station:DISL:BSCA:1,2017-05-01T08:00:00Z,30.3288,-87.8293,2.125,7.13,1111122 
DISL,ioos:station:DISL:BSCA:1,2017-05-01T08:30:00Z,30.3288,-87.8293,2.292,7.01,1111122 
DISL,ioos:station:DISL:BSCA:1,2017-05-01T09:00:00Z,30.3288,-87.8293,2.376,7.04,1111122 
DISL,ioos:station:DISL:BSCA:1,2017-05-01T09:30:00Z,30.3288,-87.8293,2.408,7.2,1111122 
DISL,ioos:station:DISL:BSCA:1,2017-05-01T10:00:00Z,30.3288,-87.8293,2.706,7.24,1111122 
DISL,ioos:station:DISL:BSCA:1,2017-05-01T10:30:00Z,30.3288,-87.8293,2.549,7.07,1111122 
DISL,ioos:station:DISL:BSCA:1,2017-05-01T11:00:00Z,30.3288,-87.8293,2.39,7.14,1111122 
DISL,ioos:station:DISL:BSCA:1,2017-05-01T11:30:00Z,30.3288,-87.8293,2.185,7.14,1111122 
DISL,ioos:station:DISL:BSCA:1,2017-05-01T12:00:00Z,30.3288,-87.8293,2.122,6.95,1111122 
DISL,ioos:station:DISL:BSCA:1,2017-05-01T12:30:00Z,30.3288,-87.8293,2.084,6.55,1111122 
DISL,ioos:station:DISL:BSCA:1,2017-05-01T13:00:00Z,30.3288,-87.8293,2.094,6.41,1111122 
DISL,ioos:station:DISL:BSCA:1,2017-05-01T13:30:00Z,30.3288,-87.8293,2.102,6.48,1111122 
DISL,ioos:station:DISL:BSCA:1,2017-05-01T14:00:00Z,30.3288,-87.8293,2.154,5.87,1111122 
DISL,ioos:station:DISL:BSCA:1,2017-05-01T14:30:00Z,30.3288,-87.8293,2.231,6.4,1111122 
DISL,ioos:station:DISL:BSCA:1,2017-05-01T15:00:00Z,30.3288,-87.8293,2.247,6.63,1111122 
DISL,ioos:station:DISL:BSCA:1,2017-05-01T15:30:00Z,30.3288,-87.8293,2.256,6.62,1111122 
DISL,ioos:station:DISL:BSCA:1,2017-05-01T16:00:00Z,30.3288,-87.8293,2.234,6.75,1111122 
DISL,ioos:station:DISL:BSCA:1,2017-05-01T16:30:00Z,30.3288,-87.8293,2.233,6.73,1111122 
DISL,ioos:station:DISL:BSCA:1,2017-05-01T17:00:00Z,30.3288,-87.8293,2.254,6.63,1111122 
DISL,ioos:station:DISL:BSCA:1,2017-05-01T17:30:00Z,30.3288,-87.8293,2.307,6.57,1111122 
DISL,ioos:station:DISL:BSCA:1,2017-05-01T18:00:00Z,30.3288,-87.8293,2.335,6.37,1111122 
DISL,ioos:station:DISL:BSCA:1,2017-05-01T18:30:00Z,30.3288,-87.8293,2.386,6.38,1111122 
DISL,ioos:station:DISL:BSCA:1,2017-05-01T19:00:00Z,30.3288,-87.8293,2.391,6.11,1111122 
DISL,ioos:station:DISL:BSCA:1,2017-05-01T19:30:00Z,30.3288,-87.8293,2.392,6.16,1111122 
DISL,ioos:station:DISL:BSCA:1,2017-05-01T20:00:00Z,30.3288,-87.8293,2.402,6.06,1111122 
DISL,ioos:station:DISL:BSCA:1,2017-05-01T20:30:00Z,30.3288,-87.8293,2.392,5.45,1111122 
DISL,ioos:station:DISL:BSCA:1,2017-05-01T21:00:00Z,30.3288,-87.8293,2.4,5.08,1111122 
DISL,ioos:station:DISL:BSCA:1,2017-05-01T21:30:00Z,30.3288,-87.8293,2.371,5.31,1111122 
DISL,ioos:station:DISL:BSCA:1,2017-05-01T22:00:00Z,30.3288,-87.8293,2.361,5.36,1111122 
DISL,ioos:station:DISL:BSCA:1,2017-05-01T22:30:00Z,30.3288,-87.8293,2.34,5.8,1111122 
DISL,ioos:station:DISL:BSCA:1,2017-05-01T23:00:00Z,30.3288,-87.8293,2.316,6.08,1111122 
DISL,ioos:station:DISL:BSCA:1,2017-05-01T23:30:00Z,30.3288,-87.8293,2.289,6.1,1111122 
DISL,ioos:station:DISL:BSCA:1,2017-05-02T00:00:00Z,30.3288,-87.8293,2.265,5.96,1111122 
DISL,ioos:station:DISL:BSCA:1,2017-05-02T00:30:00Z,30.3288,-87.8293,2.233,5.73,1111122 
DISL,ioos:station:DISL:BSCA:1,2017-05-02T01:00:00Z,30.3288,-87.8293,2.208,5.63,1111122 
DISL,ioos:station:DISL:BSCA:1,2017-05-02T01:30:00Z,30.3288,-87.8293,2.161,6.12,1111122 
DISL,ioos:station:DISL:BSCA:1,2017-05-02T02:00:00Z,30.3288,-87.8293,2.131,6.91,1111122 
DISL,ioos:station:DISL:BSCA:1,2017-05-02T02:30:00Z,30.3288,-87.8293,2.101,7.41,1111122 
DISL,ioos:station:DISL:BSCA:1,2017-05-02T03:00:00Z,30.3288,-87.8293,2.076,7.15,1111122 
DISL,ioos:station:DISL:BSCA:1,2017-05-02T03:30:00Z,30.3288,-87.8293,2.094,6.84,1111122 
DISL,ioos:station:DISL:BSCA:1,2017-05-02T04:00:00Z,30.3288,-87.8293,2.019,6.99,1111122 
DISL,ioos:station:DISL:BSCA:1,2017-05-02T04:30:00Z,30.3288,-87.8293,1.993,7.41,1111122 
DISL,ioos:station:DISL:BSCA:1,2017-05-02T05:00:00Z,30.3288,-87.8293,1.955,7.2,1111122 
DISL,ioos:station:DISL:BSCA:1,2017-05-02T05:30:00Z,30.3288,-87.8293,1.932,6.96,1111122 
DISL,ioos:station:DISL:BSCA:1,2017-05-02T06:00:00Z,30.3288,-87.8293,1.911,6.92,1111122 
DISL,ioos:station:DISL:BSCA:1,2017-05-02T06:30:00Z,30.3288,-87.8293,1.889,6.96,1111122 
DISL,ioos:station:DISL:BSCA:1,2017-05-02T07:00:00Z,30.3288,-87.8293,1.869,6.85,1111122 
DISL,ioos:station:DISL:BSCA:1,2017-05-02T07:30:00Z,30.3288,-87.8293,1.855,6.73,1111122 
DISL,ioos:station:DISL:BSCA:1,2017-05-02T08:00:00Z,30.3288,-87.8293,1.855,6.58,1111122 
DISL,ioos:station:DISL:BSCA:1,2017-05-02T08:30:00Z,30.3288,-87.8293,1.858,5.87,1111122 
DISL,ioos:station:DISL:BSCA:1,2017-05-02T09:00:00Z,30.3288,-87.8293,1.88,5.39,1111122 
DISL,ioos:station:DISL:BSCA:1,2017-05-02T09:30:00Z,30.3288,-87.8293,1.896,5.66,1111122 
DISL,ioos:station:DISL:BSCA:1,2017-05-02T10:00:00Z,30.3288,-87.8293,1.923,5.88,1111122 
DISL,ioos:station:DISL:BSCA:1,2017-05-02T10:30:00Z,30.3288,-87.8293,1.939,5.53,1111122 
DISL,ioos:station:DISL:BSCA:1,2017-05-02T11:00:00Z,30.3288,-87.8293,1.96,4.72,1111122 
DISL,ioos:station:DISL:BSCA:1,2017-05-02T11:30:00Z,30.3288,-87.8293,1.986,4.48,1111122 
DISL,ioos:station:DISL:BSCA:1,2017-05-02T12:00:00Z,30.3288,-87.8293,2.021,4.52,1111122 
DISL,ioos:station:DISL:BSCA:1,2017-05-02T12:30:00Z,30.3288,-87.8293,2.035,5.71,1111122 
DISL,ioos:station:DISL:BSCA:1,2017-05-02T13:00:00Z,30.3288,-87.8293,2.077,4.38,1111122 
DISL,ioos:station:DISL:BSCA:1,2017-05-02T13:30:00Z,30.3288,-87.8293,2.097,3.73,1111122 
DISL,ioos:station:DISL:BSCA:1,2017-05-02T14:00:00Z,30.3288,-87.8293,2.127,3.62,1111122 
DISL,ioos:station:DISL:BSCA:1,2017-05-02T14:30:00Z,30.3288,-87.8293,2.16,4.11,1111122 
DISL,ioos:station:DISL:BSCA:1,2017-05-02T15:00:00Z,30.3288,-87.8293,2.174,4.07,1111122 
DISL,ioos:station:DISL:BSCA:1,2017-05-02T15:30:00Z,30.3288,-87.8293,2.22,3.94,1111122 
DISL,ioos:station:DISL:BSCA:1,2017-05-02T16:00:00Z,30.3288,-87.8293,2.247,4.3,1111122 
DISL,ioos:station:DISL:BSCA:1,2017-05-02T16:30:00Z,30.3288,-87.8293,2.269,5.23,1111122 
DISL,ioos:station:DISL:BSCA:1,2017-05-02T17:00:00Z,30.3288,-87.8293,2.284,4.62,1111122 
DISL,ioos:station:DISL:BSCA:1,2017-05-02T17:30:00Z,30.3288,-87.8293,2.311,5.02,1111122 
DISL,ioos:station:DISL:BSCA:1,2017-05-02T18:00:00Z,30.3288,-87.8293,2.327,4.91,1111122 
DISL,ioos:station:DISL:BSCA:1,2017-05-02T18:30:00Z,30.3288,-87.8293,2.351,5.74,1111122 
DISL,ioos:station:DISL:BSCA:1,2017-05-02T19:00:00Z,30.3288,-87.8293,2.36,5.06,1111122 
DISL,ioos:station:DISL:BSCA:1,2017-05-02T19:30:00Z,30.3288,-87.8293,2.365,4.78,1111122 
DISL,ioos:station:DISL:BSCA:1,2017-05-02T20:00:00Z,30.3288,-87.8293,2.358,4.78,1111122 
DISL,ioos:station:DISL:BSCA:1,2017-05-02T20:30:00Z,30.3288,-87.8293,2.35,4.96,1111122 
DISL,ioos:station:DISL:BSCA:1,2017-05-02T21:00:00Z,30.3288,-87.8293,2.34,5.51,1111122 
DISL,ioos:station:DISL:BSCA:1,2017-05-02T21:30:00Z,30.3288,-87.8293,2.314,5.89,1111122 
DISL,ioos:station:DISL:BSCA:1,2017-05-02T22:00:00Z,30.3288,-87.8293,2.306,6.63,1111122 
DISL,ioos:station:DISL:BSCA:1,2017-05-02T22:30:00Z,30.3288,-87.8293,2.288,8.06,1111122 
DISL,ioos:station:DISL:BSCA:1,2017-05-02T23:00:00Z,30.3288,-87.8293,2.277,8.07,1111122 
DISL,ioos:station:DISL:BSCA:1,2017-05-02T23:30:00Z,30.3288,-87.8293,2.261,8.57,1111122 
DISL,ioos:station:DISL:BSCA:1,2017-05-03T00:00:00Z,30.3288,-87.8293,2.24,7.78,1111122 
DISL,ioos:station:DISL:BSCA:1,2017-05-03T00:30:00Z,30.3288,-87.8293,2.204,9.59,1111122 
DISL,ioos:station:DISL:BSCA:1,2017-05-03T01:00:00Z,30.3288,-87.8293,2.185,8.78,1111122 
DISL,ioos:station:DISL:BSCA:1,2017-05-03T01:30:00Z,30.3288,-87.8293,2.152,9.08,1111122 
DISL,ioos:station:DISL:BSCA:1,2017-05-03T02:00:00Z,30.3288,-87.8293,2.108,8.93,1111122 
DISL,ioos:station:DISL:BSCA:1,2017-05-03T02:30:00Z,30.3288,-87.8293,2.079,8.91,1111122 
DISL,ioos:station:DISL:BSCA:1,2017-05-03T03:00:00Z,30.3288,-87.8293,2.056,8.96,1111122 
DISL,ioos:station:DISL:BSCA:1,2017-05-03T03:30:00Z,30.3288,-87.8293,2.025,8.89,1111122 
DISL,ioos:station:DISL:BSCA:1,2017-05-03T04:00:00Z,30.3288,-87.8293,1.995,7.6,1111122 
DISL,ioos:station:DISL:BSCA:1,2017-05-03T04:30:00Z,30.3288,-87.8293,1.964,8.45,1111122 
DISL,ioos:station:DISL:BSCA:1,2017-05-03T05:00:00Z,30.3288,-87.8293,1.936,8.48,1111122 
DISL,ioos:station:DISL:BSCA:1,2017-05-03T05:30:00Z,30.3288,-87.8293,1.906,8.65,1111122 
DISL,ioos:station:DISL:BSCA:1,2017-05-03T06:00:00Z,30.3288,-87.8293,1.883,8.37,1111122 
DISL,ioos:station:DISL:BSCA:1,2017-05-03T06:30:00Z,30.3288,-87.8293,1.867,8.16,1111122 
DISL,ioos:station:DISL:BSCA:1,2017-05-03T07:00:00Z,30.3288,-87.8293,1.86,8.78,1111122 
DISL,ioos:station:DISL:BSCA:1,2017-05-03T07:30:00Z,30.3288,-87.8293,1.843,8.73,1111122 
DISL,ioos:station:DISL:BSCA:1,2017-05-03T08:00:00Z,30.3288,-87.8293,1.84,8.53,1111122 
DISL,ioos:station:DISL:BSCA:1,2017-05-03T08:30:00Z,30.3288,-87.8293,1.836,8.51,1111122 
DISL,ioos:station:DISL:BSCA:1,2017-05-03T09:00:00Z,30.3288,-87.8293,1.833,8.68,1111122 
DISL,ioos:station:DISL:BSCA:1,2017-05-03T09:30:00Z,30.3288,-87.8293,1.832,8.12,1111122 
DISL,ioos:station:DISL:BSCA:1,2017-05-03T10:00:00Z,30.3288,-87.8293,1.832,7.31,1111122 
DISL,ioos:station:DISL:BSCA:1,2017-05-03T10:30:00Z,30.3288,-87.8293,1.842,7.3,1111122 
DISL,ioos:station:DISL:BSCA:1,2017-05-03T11:00:00Z,30.3288,-87.8293,1.849,7.47,1111122 
DISL,ioos:station:DISL:BSCA:1,2017-05-03T11:30:00Z,30.3288,-87.8293,1.878,7.67,1111122 
DISL,ioos:station:DISL:BSCA:1,2017-05-03T12:00:00Z,30.3288,-87.8293,1.897,8.09,1111122 
DISL,ioos:station:DISL:BSCA:1,2017-05-03T12:30:00Z,30.3288,-87.8293,1.921,7.81,1111122 
DISL,ioos:station:DISL:BSCA:1,2017-05-03T13:00:00Z,30.3288,-87.8293,1.954,8.09,1111122 
DISL,ioos:station:DISL:BSCA:1,2017-05-03T13:30:00Z,30.3288,-87.8293,1.982,8.4,1111122 
DISL,ioos:station:DISL:BSCA:1,2017-05-03T14:00:00Z,30.3288,-87.8293,2.002,8.31,1111122 
DISL,ioos:station:DISL:BSCA:1,2017-05-03T14:30:00Z,30.3288,-87.8293,2.027,8.35,1111122 
DISL,ioos:station:DISL:BSCA:1,2017-05-03T15:00:00Z,30.3288,-87.8293,2.043,9.02,1111122 
DISL,ioos:station:DISL:BSCA:1,2017-05-03T15:30:00Z,30.3288,-87.8293,2.071,8.2,1111122 
DISL,ioos:station:DISL:BSCA:1,2017-05-03T16:00:00Z,30.3288,-87.8293,2.077,8.08,1111122 
DISL,ioos:station:DISL:BSCA:1,2017-05-03T16:30:00Z,30.3288,-87.8293,2.101,7.6,1111122 
DISL,ioos:station:DISL:BSCA:1,2017-05-03T17:00:00Z,30.3288,-87.8293,2.122,7.11,1111122 
DISL,ioos:station:DISL:BSCA:1,2017-05-03T17:30:00Z,30.3288,-87.8293,2.139,5.6,1111122 
DISL,ioos:station:DISL:BSCA:1,2017-05-03T18:00:00Z,30.3288,-87.8293,2.179,6.22,1111122 
DISL,ioos:station:DISL:BSCA:1,2017-05-03T18:30:00Z,30.3288,-87.8293,2.195,5.97,1111122 
DISL,ioos:station:DISL:BSCA:1,2017-05-03T19:00:00Z,30.3288,-87.8293,2.227,6.42,1111122 
DISL,ioos:station:DISL:BSCA:1,2017-05-03T19:30:00Z,30.3288,-87.8293,2.282,6.67,1111122 
DISL,ioos:station:DISL:BSCA:1,2017-05-03T20:00:00Z,30.3288,-87.8293,2.305,6.65,1111122 
DISL,ioos:station:DISL:BSCA:1,2017-05-03T20:30:00Z,30.3288,-87.8293,2.279,8.06,1111122 
DISL,ioos:station:DISL:BSCA:1,2017-05-03T21:00:00Z,30.3288,-87.8293,2.24,7.92,1111122 
DISL,ioos:station:DISL:BSCA:1,2017-05-03T21:30:00Z,30.3288,-87.8293,2.198,7.54,1111122 
DISL,ioos:station:DISL:BSCA:1,2017-05-03T22:00:00Z,30.3288,-87.8293,2.319,5.83,1111122 
DISL,ioos:station:DISL:BSCA:1,2017-05-03T22:30:00Z,30.3288,-87.8293,2.415,6.94,1111122 
DISL,ioos:station:DISL:BSCA:1,2017-05-03T23:00:00Z,30.3288,-87.8293,2.457,7.64,1111122 
DISL,ioos:station:DISL:BSCA:1,2017-05-03T23:30:00Z,30.3288,-87.8293,2.488,7.29,1111122 
DISL,ioos:station:DISL:BSCA:1,2017-05-04T00:00:00Z,30.3288,-87.8293,2.347,7.62,1111122 
DISL,ioos:station:DISL:BSCA:1,2017-05-04T00:30:00Z,30.3288,-87.8293,2.146,7.65,1111122 
DISL,ioos:station:DISL:BSCA:1,2017-05-04T01:00:00Z,30.3288,-87.8293,1.826,7.45,1111122 
DISL,ioos:station:DISL:BSCA:1,2017-05-04T01:30:00Z,30.3288,-87.8293,1.803,7.17,1111122 
DISL,ioos:station:DISL:BSCA:1,2017-05-04T02:00:00Z,30.3288,-87.8293,1.826,7.27,1111122 
DISL,ioos:station:DISL:BSCA:1,2017-05-04T02:30:00Z,30.3288,-87.8293,1.959,7.51,1111122 
DISL,ioos:station:DISL:BSCA:1,2017-05-04T03:00:00Z,30.3288,-87.8293,2.225,7.26,1111122 
DISL,ioos:station:DISL:BSCA:1,2017-05-04T03:30:00Z,30.3288,-87.8293,2.304,7.17,1111122 
DISL,ioos:station:DISL:BSCA:1,2017-05-04T04:00:00Z,30.3288,-87.8293,2.454,7.16,1111122 
DISL,ioos:station:DISL:BSCA:1,2017-05-04T04:30:00Z,30.3288,-87.8293,2.42,7.38,1111122 
DISL,ioos:station:DISL:BSCA:1,2017-05-04T05:00:00Z,30.3288,-87.8293,2.415,7.23,1111122 
DISL,ioos:station:DISL:BSCA:1,2017-05-04T05:30:00Z,30.3288,-87.8293,2.216,7.17,1111122 
DISL,ioos:station:DISL:BSCA:1,2017-05-04T06:00:00Z,30.3288,-87.8293,2.114,7.21,1111122 
DISL,ioos:station:DISL:BSCA:1,2017-05-04T06:30:00Z,30.3288,-87.8293,2.063,7.24,1111122 
DISL,ioos:station:DISL:BSCA:1,2017-05-04T07:00:00Z,30.3288,-87.8293,2.034,7.34,1111122 
DISL,ioos:station:DISL:BSCA:1,2017-05-04T07:30:00Z,30.3288,-87.8293,2.157,6.74,1111122 
DISL,ioos:station:DISL:BSCA:1,2017-05-04T08:00:00Z,30.3288,-87.8293,2.044,7.01,1111122 
DISL,ioos:station:DISL:BSCA:1,2017-05-04T08:30:00Z,30.3288,-87.8293,2.0,6.57,1111122 
DISL,ioos:station:DISL:BSCA:1,2017-05-04T09:00:00Z,30.3288,-87.8293,1.923,6.49,1111122 
DISL,ioos:station:DISL:BSCA:1,2017-05-04T09:30:00Z,30.3288,-87.8293,1.875,6.39,1111122 
DISL,ioos:station:DISL:BSCA:1,2017-05-04T10:00:00Z,30.3288,-87.8293,1.902,6.61,1111122 
DISL,ioos:station:DISL:BSCA:1,2017-05-04T10:30:00Z,30.3288,-87.8293,1.856,6.59,1111122 
DISL,ioos:station:DISL:BSCA:1,2017-05-04T11:00:00Z,30.3288,-87.8293,1.825,6.61,1111122 
DISL,ioos:station:DISL:BSCA:1,2017-05-04T11:30:00Z,30.3288,-87.8293,1.84,5.55,1111122 
DISL,ioos:station:DISL:BSCA:1,2017-05-04T12:00:00Z,30.3288,-87.8293,1.853,6.57,1111122 
DISL,ioos:station:DISL:BSCA:1,2017-05-04T12:30:00Z,30.3288,-87.8293,1.842,7.23,1111122 
DISL,ioos:station:DISL:BSCA:1,2017-05-04T13:00:00Z,30.3288,-87.8293,1.769,7.09,1111122 
DISL,ioos:station:DISL:BSCA:1,2017-05-04T13:30:00Z,30.3288,-87.8293,1.891,6.98,1111122 
DISL,ioos:station:DISL:BSCA:1,2017-05-04T14:00:00Z,30.3288,-87.8293,2.054,7.03,1111122 
DISL,ioos:station:DISL:BSCA:1,2017-05-04T14:30:00Z,30.3288,-87.8293,2.199,6.86,1111122 
DISL,ioos:station:DISL:BSCA:1,2017-05-04T15:00:00Z,30.3288,-87.8293,2.342,6.88,1111122 
DISL,ioos:station:DISL:BSCA:1,2017-05-04T15:30:00Z,30.3288,-87.8293,2.388,6.43,1111122 
DISL,ioos:station:DISL:BSCA:1,2017-05-04T16:00:00Z,30.3288,-87.8293,2.43,7.13,1111122 
DISL,ioos:station:DISL:BSCA:1,2017-05-04T16:30:00Z,30.3288,-87.8293,2.446,7.08,1111122 
DISL,ioos:station:DISL:BSCA:1,2017-05-04T17:00:00Z,30.3288,-87.8293,2.471,7.08,1111122 
DISL,ioos:station:DISL:BSCA:1,2017-05-04T17:30:00Z,30.3288,-87.8293,2.393,7.09,1111122 
DISL,ioos:station:DISL:BSCA:1,2017-05-04T18:00:00Z,30.3288,-87.8293,2.384,7.1,1111122 
DISL,ioos:station:DISL:BSCA:1,2017-05-04T18:30:00Z,30.3288,-87.8293,2.271,7.15,1111122 
DISL,ioos:station:DISL:BSCA:1,2017-05-04T19:00:00Z,30.3288,-87.8293,2.263,7.0,1111122 
DISL,ioos:station:DISL:BSCA:1,2017-05-04T19:30:00Z,30.3288,-87.8293,2.326,7.09,1111122 
DISL,ioos:station:DISL:BSCA:1,2017-05-04T20:00:00Z,30.3288,-87.8293,2.412,7.13,1111122 
DISL,ioos:station:DISL:BSCA:1,2017-05-04T20:30:00Z,30.3288,-87.8293,2.385,7.29,1111122 
DISL,ioos:station:DISL:BSCA:1,2017-05-04T21:00:00Z,30.3288,-87.8293,2.407,7.18,1111122 
DISL,ioos:station:DISL:BSCA:1,2017-05-04T21:30:00Z,30.3288,-87.8293,2.45,7.32,1111122 
DISL,ioos:station:DISL:BSCA:1,2017-05-04T22:00:00Z,30.3288,-87.8293,2.479,7.29,1111122 
DISL,ioos:station:DISL:BSCA:1,2017-05-04T22:30:00Z,30.3288,-87.8293,2.467,7.3,1111122 
DISL,ioos:station:DISL:BSCA:1,2017-05-04T23:00:00Z,30.3288,-87.8293,2.289,7.53,1111122 
DISL,ioos:station:DISL:BSCA:1,2017-05-04T23:30:00Z,30.3288,-87.8293,2.276,7.45,1111122 
DISL,ioos:station:DISL:BSCA:1,2017-05-05T00:00:00Z,30.3288,-87.8293,2.233,7.44,1111122 
DISL,ioos:station:DISL:BSCA:1,2017-05-05T00:30:00Z,30.3288,-87.8293,2.149,7.42,1111122 
DISL,ioos:station:DISL:BSCA:1,2017-05-05T01:00:00Z,30.3288,-87.8293,2.235,7.49,1111122 
DISL,ioos:station:DISL:BSCA:1,2017-05-05T01:30:00Z,30.3288,-87.8293,2.292,7.51,1111122 
DISL,ioos:station:DISL:BSCA:1,2017-05-05T02:00:00Z,30.3288,-87.8293,2.193,7.52,1111122 
DISL,ioos:station:DISL:BSCA:1,2017-05-05T02:30:00Z,30.3288,-87.8293,2.158,7.5,1111122 
DISL,ioos:station:DISL:BSCA:1,2017-05-05T03:00:00Z,30.3288,-87.8293,2.126,7.48,1111122 
DISL,ioos:station:DISL:BSCA:1,2017-05-05T03:30:00Z,30.3288,-87.8293,2.195,7.55,1111122 
DISL,ioos:station:DISL:BSCA:1,2017-05-05T04:00:00Z,30.3288,-87.8293,2.012,7.49,1111122 
DISL,ioos:station:DISL:BSCA:1,2017-05-05T04:30:00Z,30.3288,-87.8293,2.007,7.48,1111122 
DISL,ioos:station:DISL:BSCA:1,2017-05-05T05:00:00Z,30.3288,-87.8293,2.088,7.56,1111122 
DISL,ioos:station:DISL:BSCA:1,2017-05-05T05:30:00Z,30.3288,-87.8293,2.148,7.52,1111122 
DISL,ioos:station:DISL:BSCA:1,2017-05-05T06:00:00Z,30.3288,-87.8293,2.217,7.55,1111122 
DISL,ioos:station:DISL:BSCA:1,2017-05-05T06:30:00Z,30.3288,-87.8293,2.016,7.52,1111122 
DISL,ioos:station:DISL:BSCA:1,2017-05-05T07:00:00Z,30.3288,-87.8293,2.021,7.53,1111122 
DISL,ioos:station:DISL:BSCA:1,2017-05-05T07:30:00Z,30.3288,-87.8293,1.769,7.56,1111122 
DISL,ioos:station:DISL:BSCA:1,2017-05-05T08:00:00Z,30.3288,-87.8293,1.753,7.53,1111122 
DISL,ioos:station:DISL:BSCA:1,2017-05-05T08:30:00Z,30.3288,-87.8293,1.808,7.6,1111122 
DISL,ioos:station:DISL:BSCA:1,2017-05-05T09:00:00Z,30.3288,-87.8293,1.81,7.62,1111122 
DISL,ioos:station:DISL:BSCA:1,2017-05-05T09:30:00Z,30.3288,-87.8293,1.84,7.56,1111122 
DISL,ioos:station:DISL:BSCA:1,2017-05-05T10:00:00Z,30.3288,-87.8293,1.908,7.6,1111122 
DISL,ioos:station:DISL:BSCA:1,2017-05-05T10:30:00Z,30.3288,-87.8293,1.82,7.68,1111122 
DISL,ioos:station:DISL:BSCA:1,2017-05-05T11:00:00Z,30.3288,-87.8293,1.948,7.71,1111122 
DISL,ioos:station:DISL:BSCA:1,2017-05-05T11:30:00Z,30.3288,-87.8293,1.865,7.64,1111122 
DISL,ioos:station:DISL:BSCA:1,2017-05-05T12:00:00Z,30.3288,-87.8293,1.915,7.61,1111122 
DISL,ioos:station:DISL:BSCA:1,2017-05-05T12:30:00Z,30.3288,-87.8293,1.903,7.71,1111122 
DISL,ioos:station:DISL:BSCA:1,2017-05-05T13:00:00Z,30.3288,-87.8293,1.87,7.7,1111122 
DISL,ioos:station:DISL:BSCA:1,2017-05-05T13:30:00Z,30.3288,-87.8293,1.98,7.76,1111122 
DISL,ioos:station:DISL:BSCA:1,2017-05-05T14:00:00Z,30.3288,-87.8293,2.002,7.82,1111122 
DISL,ioos:station:DISL:BSCA:1,2017-05-05T14:30:00Z,30.3288,-87.8293,2.199,7.87,1111122 
DISL,ioos:station:DISL:BSCA:1,2017-05-05T15:00:00Z,30.3288,-87.8293,2.175,7.84,1111122 
DISL,ioos:station:DISL:BSCA:1,2017-05-05T15:30:00Z,30.3288,-87.8293,2.17,7.77,1111122 
DISL,ioos:station:DISL:BSCA:1,2017-05-05T16:00:00Z,30.3288,-87.8293,2.015,7.85,1111122 
DISL,ioos:station:DISL:BSCA:1,2017-05-05T16:30:00Z,30.3288,-87.8293,2.153,7.86,1111122 
DISL,ioos:station:DISL:BSCA:1,2017-05-05T17:00:00Z,30.3288,-87.8293,2.083,7.99,1111122 
DISL,ioos:station:DISL:BSCA:1,2017-05-05T17:30:00Z,30.3288,-87.8293,2.094,8.08,1111122 
DISL,ioos:station:DISL:BSCA:1,2017-05-05T18:00:00Z,30.3288,-87.8293,2.101,8.08,1111122 
DISL,ioos:station:DISL:BSCA:1,2017-05-05T18:30:00Z,30.3288,-87.8293,2.013,8.13,1111122 
DISL,ioos:station:DISL:BSCA:1,2017-05-05T19:00:00Z,30.3288,-87.8293,2.191,8.17,1111122 
DISL,ioos:station:DISL:BSCA:1,2017-05-05T19:30:00Z,30.3288,-87.8293,2.115,8.22,1111122 
DISL,ioos:station:DISL:BSCA:1,2017-05-05T20:00:00Z,30.3288,-87.8293,2.063,8.16,1111122 
DISL,ioos:station:DISL:BSCA:1,2017-05-05T20:30:00Z,30.3288,-87.8293,2.017,8.09,1111122 
DISL,ioos:station:DISL:BSCA:1,2017-05-05T21:00:00Z,30.3288,-87.8293,1.95,7.97,1111122 
DISL,ioos:station:DISL:BSCA:1,2017-05-05T21:30:00Z,30.3288,-87.8293,1.887,8.12,1111122 
DISL,ioos:station:DISL:BSCA:1,2017-05-05T22:00:00Z,30.3288,-87.8293,1.857,7.97,1111122 
DISL,ioos:station:DISL:BSCA:1,2017-05-05T22:30:00Z,30.3288,-87.8293,1.853,8.14,1111122 
DISL,ioos:station:DISL:BSCA:1,2017-05-05T23:00:00Z,30.3288,-87.8293,1.831,8.18,1111122 
DISL,ioos:station:DISL:BSCA:1,2017-05-05T23:30:00Z,30.3288,-87.8293,1.903,8.19,1111122 
DISL,ioos:station:DISL:BSCA:1,2017-05-06T00:00:00Z,30.3288,-87.8293,1.996,8.28,1111122 
DISL,ioos:station:DISL:BSCA:1,2017-05-06T00:30:00Z,30.3288,-87.8293,2.071,8.16,1111122 
DISL,ioos:station:DISL:BSCA:1,2017-05-06T01:00:00Z,30.3288,-87.8293,2.034,8.2,1111122 
DISL,ioos:station:DISL:BSCA:1,2017-05-06T01:30:00Z,30.3288,-87.8293,1.921,8.15,1111122 
DISL,ioos:station:DISL:BSCA:1,2017-05-06T02:00:00Z,30.3288,-87.8293,1.891,8.01,1111122 
DISL,ioos:station:DISL:BSCA:1,2017-05-06T02:30:00Z,30.3288,-87.8293,1.859,7.97,1111122 
DISL,ioos:station:DISL:BSCA:1,2017-05-06T03:00:00Z,30.3288,-87.8293,1.839,7.96,1111122 
DISL,ioos:station:DISL:BSCA:1,2017-05-06T03:30:00Z,30.3288,-87.8293,1.85,8.1,1111122 
DISL,ioos:station:DISL:BSCA:1,2017-05-06T04:00:00Z,30.3288,-87.8293,1.872,8.03,1111122 
DISL,ioos:station:DISL:BSCA:1,2017-05-06T04:30:00Z,30.3288,-87.8293,1.871,8.03,1111122 
DISL,ioos:station:DISL:BSCA:1,2017-05-06T05:00:00Z,30.3288,-87.8293,1.872,8.09,1111122 
DISL,ioos:station:DISL:BSCA:1,2017-05-06T05:30:00Z,30.3288,-87.8293,1.848,8.09,1111122 
DISL,ioos:station:DISL:BSCA:1,2017-05-06T06:00:00Z,30.3288,-87.8293,1.81,8.17,1111122 
DISL,ioos:station:DISL:BSCA:1,2017-05-06T06:30:00Z,30.3288,-87.8293,1.779,8.07,1111122 
DISL,ioos:station:DISL:BSCA:1,2017-05-06T07:00:00Z,30.3288,-87.8293,1.763,7.99,1111122 
DISL,ioos:station:DISL:BSCA:1,2017-05-06T07:30:00Z,30.3288,-87.8293,1.75,7.78,1111122 
DISL,ioos:station:DISL:BSCA:1,2017-05-06T08:00:00Z,30.3288,-87.8293,1.753,7.82,1111122 
DISL,ioos:station:DISL:BSCA:1,2017-05-06T08:30:00Z,30.3288,-87.8293,1.782,7.76,1111122 
DISL,ioos:station:DISL:BSCA:1,2017-05-06T09:00:00Z,30.3288,-87.8293,1.813,7.79,1111122 
DISL,ioos:station:DISL:BSCA:1,2017-05-06T09:30:00Z,30.3288,-87.8293,1.832,7.75,1111122 
DISL,ioos:station:DISL:BSCA:1,2017-05-06T10:00:00Z,30.3288,-87.8293,1.852,7.78,1111122 
DISL,ioos:station:DISL:BSCA:1,2017-05-06T10:30:00Z,30.3288,-87.8293,1.85,7.85,1111122 
DISL,ioos:station:DISL:BSCA:1,2017-05-06T11:00:00Z,30.3288,-87.8293,1.853,7.9,1111122 
DISL,ioos:station:DISL:BSCA:1,2017-05-06T11:30:00Z,30.3288,-87.8293,1.839,7.75,1111122 
DISL,ioos:station:DISL:BSCA:1,2017-05-06T12:00:00Z,30.3288,-87.8293,1.836,7.66,1111122 
DISL,ioos:station:DISL:BSCA:1,2017-05-06T12:30:00Z,30.3288,-87.8293,1.847,7.5,1111122 
DISL,ioos:station:DISL:BSCA:1,2017-05-06T13:00:00Z,30.3288,-87.8293,1.849,7.55,1111122 
DISL,ioos:station:DISL:BSCA:1,2017-05-06T13:30:00Z,30.3288,-87.8293,1.863,7.74,1111122 
DISL,ioos:station:DISL:BSCA:1,2017-05-06T14:00:00Z,30.3288,-87.8293,1.885,7.44,1111122 
DISL,ioos:station:DISL:BSCA:1,2017-05-06T14:30:00Z,30.3288,-87.8293,1.917,7.46,1111122 
DISL,ioos:station:DISL:BSCA:1,2017-05-06T15:00:00Z,30.3288,-87.8293,1.921,7.25,1111122 
DISL,ioos:station:DISL:BSCA:1,2017-05-06T15:30:00Z,30.3288,-87.8293,1.941,7.31,1111122 